Home   Weather   Chișinău   Past weeks

Flag for Moldova Past Weather in Chișinău, Moldova — Yesterday and Last 2 Weeks

Now
55 °F

Clear.


Feels Like: 55 °F
Forecast: 50 / 65 °F
Wind: 5 mph from Southwest

Location: Chisinau International Airport

Current Time: Sep 25, 2016 at 12:04:58 AM

Latest Report: Sep 24, 2016 at 11:30 PM


Visibility: 10 mi

Pressure: 30.18 "Hg

Humidity: 77%

Dew Point: 48 °F

Location of ChișinăuLocation

Past Weather in Chișinău — Graph

°F

Chișinău Temperature Yesterday

Maximum temperature yesterday: 64 °F (at 2:30 PM)
Minimum temperature yesterday: 48 °F (at 7:00 AM)
Average temperature yesterday: 57 °F

High & Low Weather Summary for the Past Weeks

 TemperatureHumidityPressure
High90 °F (Sep 13, 4:30 PM)94% (Sep 20, 4:30 AM)30.27 "Hg (Sep 20, 4:30 AM)
Low43 °F (Sep 22, 3:00 AM)24% (Sep 13, 2:30 PM)29.68 "Hg (Sep 20, 5:00 AM)
Average64 °F55%29.99 "Hg
* Reported Sep 9 11:00 PM — Sep 24 11:00 PM, Chișinău, Weather by CustomWeather, © 2016

Note: Actual official high and low records may vary slightly from our data, if they occured in-between our weather recording intervals... More about our weather records

Advertising

Chișinău Weather History for the Previous 24 Hours

Scroll right to see more
 ConditionsComfort  
Time TempWeatherWind HumidityBarometerVisibility
11:00 PM
Sat, Sep 24
57 °FClear.6 mph67%30.21 "Hg10 mi
10:30 PM57 °FClear.5 mph72%30.21 "Hg10 mi
10:00 PM57 °FClear.5 mph72%30.21 "Hg10 mi
9:30 PM59 °FClear.2 mph68%30.21 "Hg10 mi
9:00 PM57 °FClear.1 mph72%30.21 "Hg10 mi
8:30 PM61 °FPassing clouds.5 mph59%30.21 "HgN/A
8:00 PM61 °FPassing clouds.2 mph63%30.21 "Hg3 mi
7:30 PM61 °FPassing clouds.3 mph63%30.21 "HgN/A
7:00 PM63 °FPassing clouds.3 mph59%30.21 "HgN/A
6:30 PM64 °FScattered clouds.No wind52%30.21 "HgN/A
6:00 PM64 °FScattered clouds.2 mph52%30.21 "HgN/A
5:30 PM64 °FScattered clouds.5 mph56%30.21 "HgN/A
5:00 PM64 °FPartly sunny.2 mph52%30.21 "HgN/A
4:30 PM64 °FPartly sunny.5 mph52%30.21 "HgN/A
4:00 PM64 °FPartly sunny.7 mph52%30.24 "HgN/A
3:30 PM64 °FLight rain. Partly sunny.9 mph52%30.24 "HgN/A
3:00 PM64 °FScattered clouds.9 mph56%30.24 "HgN/A
2:30 PM64 °FBroken clouds.10 mph52%30.24 "HgN/A
2:00 PM63 °FBroken clouds.10 mph59%30.27 "HgN/A
1:30 PM63 °FPartly sunny.10 mph59%30.27 "HgN/A
1:00 PM61 °FPartly sunny.12 mph63%30.27 "HgN/A
12:30 PM61 °FBroken clouds.12 mph63%30.27 "HgN/A
12:00 PM61 °FBroken clouds.10 mph63%30.27 "HgN/A
11:30 AM63 °FScattered clouds.14 mph59%30.27 "HgN/A
11:00 AM61 °FPassing clouds.10 mph63%30.27 "HgN/A
10:30 AM59 °FPassing clouds.7 mph68%30.27 "HgN/A
10:00 AM57 °FPassing clouds.7 mph72%30.27 "HgN/A
9:30 AM57 °FPassing clouds.8 mph72%30.27 "HgN/A
9:00 AM55 °FPassing clouds.2 mph82%30.27 "HgN/A
8:30 AM54 °FSunny.2 mph82%30.27 "Hg10 mi
8:00 AM52 °FSunny.No wind88%30.27 "Hg10 mi
7:30 AM50 °FSunny.3 mph88%30.27 "Hg10 mi
7:00 AM48 °FSunny.5 mph94%30.27 "Hg10 mi
6:30 AM50 °FPassing clouds.2 mph88%30.27 "HgN/A
6:00 AM50 °FPassing clouds.2 mph88%30.24 "HgN/A
5:30 AM52 °FPassing clouds.6 mph88%30.24 "HgN/A
5:00 AM54 °FPassing clouds.3 mph82%30.24 "HgN/A
4:30 AM54 °FPassing clouds.5 mph82%30.24 "HgN/A
4:00 AM54 °FPassing clouds.5 mph82%30.24 "HgN/A
3:30 AM54 °FLight rain. Passing clouds.9 mph77%30.27 "HgN/A
3:00 AM52 °FClear.2 mph77%30.27 "Hg10 mi
2:30 AM50 °FClear.2 mph76%30.27 "Hg10 mi
2:00 AM50 °FClear.1 mph76%30.24 "Hg10 mi
1:30 AM52 °FPassing clouds.3 mph72%30.24 "HgN/A
1:00 AM52 °FPassing clouds.5 mph72%30.24 "HgN/A
12:30 AM52 °FClear.8 mph67%30.24 "Hg10 mi
12:00 AM52 °FClear.6 mph67%30.24 "Hg10 mi
Weather by CustomWeather, © 2016

See weather overviewHow to use our weather pages